Zurück zum Katalog

FENGYUN 1C DEB

AktivPO
NORAD 32425·DEBRIS·🇨🇳 China

Gestartet May 10, 1999 von Taiyuan Satellite Launch Center

Loading…

Nächste Überflüge (nächste 24 Stunden)

TLE

AktuellSource: Space-Track

Epoche: Sep 11, 2026, 00:08 UTC

1 32425U 99025DAM 26254.00612266  .00000736  00000-0  29095-3 0  9997
2 32425  96.7248 341.2846 0231383 196.9584 162.3770 14.17374620733918

Verfolge FENGYUN 1C DEB in Echtzeit mit AllMySat

Download on the App Store